Tracking 20083 objects as of 8-Dec-2019
HD Live streaming from Space Station
objects crossing your sky now

TITAN 3C TRANSTAGE R/B

Track TITAN 3C TRANSTAGE R/B now!
10-day predictions


NORAD ID: 1863
Int'l Code: 1965-108A
Perigee: 323.7 km
Apogee: 21,367.4 km
Inclination: 26.7 °
Period: 374.7 minutes
Semi major axis: 17216 km
RCS: 10.3335 m2 (large)
Launch date: December 21, 1965
Source: United States (US)
Launch site: AIR FORCE EASTERN TEST RANGE (AFETR)

Note: This is a ROCKET BODY
aabbcc
Your satellite tracking list
Your tracking list is empty




NASA's NSSDC Master Catalog

Two Line Element Set (TLE):
1  1863U 65108A   19341.75846455  .00000890  00000-0  35536-3 0  9992
2  1863  26.7496 122.7896 6111471 153.5331 258.5628  3.84311677275551
Source of the keplerian elements: AFSPC